Hourly Data Report for September 04, 2017

All times are specified in Local Standard Time (LST). Add 1 hour to adjust for Daylight Saving Time where and when it is observed.

QIKIQTARJUAQ A
NUNAVUT

67°32'48.000" N
64°01'54.000" W
5.50 m
2400577
YVM

Download Data

Hourly Data (September 2017)
Hourly Data Report for September 4, 2017
Temp Definition
°C
Dew Point Temp Definition
°C
Rel Hum Definition
%
Wind Dir Definition
10's deg

Wind Spd Definition
km/h
Visibility Definition
km
Stn Press Definition
kPa
Hmdx Definition


Wind Chill Definition


Weather Definition


TIME
00:00 Legend Double Dagger 1.2 -2.0 79   0 16.1 100.97     LegendNANA
01:00 Legend Double Dagger 1.9 -1.9 76   0 16.1 100.96     LegendNANA
02:00 Legend Double Dagger 1.2 -1.8 81 20 4 16.1 100.97     LegendNANA
03:00 Legend Double Dagger 0.9 -1.2 86 20 8 16.1 100.99     LegendNANA
04:00 Legend Double Dagger 1.2 -0.9 86 20 5 16.1 101.00     LegendNANA
05:00 Legend Double Dagger 1.5 -0.8 85 20 5 16.1 101.03     LegendNANA
06:00 Legend Double Dagger 1.8 -0.6 84 21 4 16.1 101.04     LegendNANA
07:00 Legend Double Dagger 2.3 -0.3 83 28 4 16.1 101.06     LegendNANA
08:00 Legend Double Dagger 2.7 -0.3 81 LegendMM 4 16.1 101.08     LegendNANA
09:00 Legend Double Dagger 3.3 -1.2 72 21 9 16.1 101.07     LegendNANA
10:00 Legend Double Dagger 3.8 -1.5 68 14 15 16.1 101.07     LegendNANA
11:00 Legend Double Dagger 4.2 -1.8 65 14 17 16.1 101.06     LegendNANA
12:00 Legend Double Dagger 4.1 -2.6 62 12 9 16.1 101.08     LegendNANA
13:00 Legend Double Dagger 4.1 -2.6 62 14 11 16.1 101.09     LegendNANA
14:00 Legend Double Dagger 3.7 -1.5 69 29 9 16.1 101.13     LegendNANA
15:00 Legend Double Dagger 3.8 -2.6 63 5 15 16.1 101.15     LegendNANA
16:00 Legend Double Dagger 3.5 -2.8 63 7 13 16.1 101.19     LegendNANA
17:00 Legend Double Dagger 3.0 -3.3 63 14 15 16.1 101.22     LegendNANA
18:00 Legend Double Dagger 2.8 -3.1 65 13 11 16.1 101.25     LegendNANA
19:00 Legend Double Dagger 2.6 -3.6 64 13 11 16.1 101.26     LegendNANA
20:00 Legend Double Dagger 2.6 -3.3 65 12 4 16.1 101.26     LegendNANA
21:00 Legend Double Dagger 2.5 -3.0 67 15 8 16.1 101.27     LegendNANA
22:00 Legend Double Dagger 2.4 -3.1 67 14 11 16.1 101.25     LegendNANA
23:00 Legend Double Dagger 2.2 -3.1 68 13 11 16.1 101.23     LegendNANA

Notes on Data Quality.

Legend

  • E = Estimated
  • M = Missing
  • NA = Not Available
  • ‡ = Partner data that is not subject to review by the National Climate Archives
Date modified: